Truckee-Tahoe, CA

3:02 AM PDT on October 17, 2017 (GMT -0700)
Truckee-Tahoe

Weather History for KTRK - March, 2014

Change the Weather History Date:

Sunday, March 9, 2014

  Actual Average Record
Temperature  
Mean Temperature 47 °F -  
Max Temperature 59 °F 48 °F 64 °F (1972)
Min Temperature 35 °F 22 °F 0 °F (1958)
Degree Days  
Heating Degree Days 18    
Moisture  
Dew Point 22 °F    
Average Humidity 42    
Maximum Humidity 70    
Minimum Humidity 22    
Precipitation  
Precipitation 0.00 in - - ()
Sea Level Pressure  
Sea Level Pressure 30.24 in    
Wind  
Wind Speed 5 mph (SSW)    
Max Wind Speed 21 mph    
Max Gust Speed 28 mph    
Visibility 10 miles    
Events      
Averages and records for this station are not official NWS values.
T = Trace of Precipitation, MM = Missing Value Source: NWS Daily Summary

Daily Weather History Graph

Daily Weather History Graph

Search for Another Location

Airport or City:

Trip Planner

Search our weather history database for the weather conditions in past years. The results will help you decide how hot, cold, wet, or windy it might be!

Date:

Astronomy

Mar. 09, 2014 Rise Set
Actual Time 7:21 AM PDT 7:01 PM PDT
Civil Twilight 6:54 AM PDT 7:28 PM PDT
Nautical Twilight 6:23 AM PDT 7:59 PM PDT
Astronomical Twilight 5:52 AM PDT 8:30 PM PDT
Moon 1:00 PM PDT (3/9) 3:49 AM PDT (3/9)
Length of Visible Light 12h 33m
Length of Day
11h 40m
First Quarter, 62% of the Moon is Illuminated
Mar 9
First Quarter
Mar 16
Full
Mar 23
Last Quarter
Mar 30
New
Apr 7
First Quarter

Hourly Weather History & Observations

Time (PDT) Temp. Windchill Dew Point Humidity Pressure Visibility Wind Dir Wind Speed Gust Speed Precip Events Conditions
12:15 AM 37.4 °F - 24.8 °F 60% 30.31 in 10.0 mi Calm Calm - N/A   Clear
12:35 AM 37.4 °F - 26.6 °F 65% 30.32 in 10.0 mi Calm Calm - N/A   Clear
12:55 AM 39.2 °F - 23.0 °F 52% 30.32 in 10.0 mi Calm Calm - N/A   Clear
1:15 AM 39.2 °F 37.0 °F 24.8 °F 56% 30.32 in 10.0 mi NNW 3.5 mph - N/A   Clear
1:35 AM 39.2 °F - 26.6 °F 61% 30.32 in 10.0 mi Calm Calm - N/A   Scattered Clouds
1:55 AM 39.2 °F 37.0 °F 26.6 °F 61% 30.31 in 10.0 mi East 3.5 mph - N/A   Clear
3:15 AM 37.4 °F - 26.6 °F 65% 30.31 in 10.0 mi Calm Calm - N/A   Scattered Clouds
3:35 AM 35.6 °F 32.8 °F 26.6 °F 70% 30.31 in 10.0 mi East 3.5 mph - N/A   Mostly Cloudy
3:55 AM 39.2 °F - 23.0 °F 52% 30.31 in 10.0 mi Calm Calm - N/A   Overcast
4:15 AM 37.4 °F - 24.8 °F 60% 30.30 in 10.0 mi Calm Calm - N/A   Overcast
4:30 AM 41.0 °F - 21.2 °F 45% 30.30 in 10.0 mi Calm Calm - N/A   Overcast
4:55 AM 37.4 °F 32.8 °F 23.0 °F 56% 30.29 in 10.0 mi North 5.8 mph - N/A   Scattered Clouds
5:15 AM 41.0 °F - 21.2 °F 45% 30.30 in 10.0 mi Calm Calm - N/A   Mostly Cloudy
5:35 AM 39.2 °F - 23.0 °F 52% 30.30 in 10.0 mi Calm Calm - N/A   Overcast
5:55 AM 41.0 °F - 19.4 °F 42% 30.29 in 10.0 mi Calm Calm - N/A   Overcast
6:15 AM 39.2 °F - 21.2 °F 49% 30.29 in 10.0 mi Calm Calm - N/A   Overcast
6:35 AM 42.8 °F 41.1 °F 21.2 °F 42% 30.29 in 10.0 mi East 3.5 mph - N/A   Overcast
6:55 AM 42.8 °F - 21.2 °F 42% 30.28 in 10.0 mi Calm Calm - N/A   Overcast
8:55 AM 44.6 °F - 24.8 °F 46% 30.30 in 10.0 mi Calm Calm - N/A   Overcast
9:55 AM 50.0 °F - 24.8 °F 37% 30.29 in 10.0 mi Calm Calm - N/A   Overcast
10:55 AM 53.6 °F - 30.2 °F 41% 30.28 in 10.0 mi SSE 10.4 mph 17.3 mph N/A   Mostly Cloudy
11:50 AM 55.4 °F - 28.4 °F 36% 30.27 in 10.0 mi South 13.8 mph 23.0 mph N/A   Mostly Cloudy
12:55 PM 55.4 °F - 17.6 °F 23% 30.27 in 10.0 mi SSW 16.1 mph 23.0 mph N/A   Mostly Cloudy
1:50 PM 53.6 °F - 17.6 °F 24% 30.26 in 10.0 mi SSW 20.7 mph 27.6 mph N/A   Mostly Cloudy
2:50 PM 59.0 °F - 19.4 °F 22% 30.24 in 10.0 mi SW 17.3 mph 25.3 mph N/A   Mostly Cloudy
3:55 PM 57.2 °F - 19.4 °F 23% 30.23 in 10.0 mi WSW 17.3 mph 24.2 mph N/A   Mostly Cloudy
5:50 PM 55.4 °F - 21.2 °F 26% 30.21 in 10.0 mi SSW 13.8 mph - N/A   Mostly Cloudy
5:55 PM 50.0 °F - 23.0 °F 35% 30.20 in 10.0 mi SSW 9.2 mph 17.3 mph N/A   Clear
6:15 PM 50.0 °F - 23.0 °F 35% 30.21 in 10.0 mi SW 5.8 mph - N/A   Clear
6:35 PM 48.2 °F - 23.0 °F 37% 30.20 in 10.0 mi SSW 9.2 mph - N/A   Clear
6:55 PM 48.2 °F - 21.2 °F 34% 30.19 in 10.0 mi SSW 11.5 mph 20.7 mph N/A   Clear
7:15 PM 46.4 °F 40.1 °F 19.4 °F 34% 30.19 in 10.0 mi SSW 15.0 mph 20.7 mph N/A   Clear
7:35 PM 46.4 °F 42.4 °F 21.2 °F 37% 30.19 in 10.0 mi SSW 8.1 mph 17.3 mph N/A   Clear
7:55 PM 44.6 °F 38.4 °F 19.4 °F 37% 30.19 in 10.0 mi SSW 12.7 mph - N/A   Clear
8:15 PM 44.6 °F 38.1 °F 19.4 °F 37% 30.19 in 10.0 mi South 13.8 mph 17.3 mph N/A   Clear
8:35 PM 44.6 °F 39.2 °F 19.4 °F 37% 30.19 in 10.0 mi South 10.4 mph - N/A   Clear
8:55 PM 44.6 °F 38.1 °F 19.4 °F 37% 30.18 in 10.0 mi South 13.8 mph 19.6 mph N/A   Clear
9:10 PM 44.6 °F 40.2 °F 19.4 °F 37% 30.19 in 10.0 mi SSW 8.1 mph 19.6 mph N/A   Clear
9:35 PM 44.6 °F 38.4 °F 21.2 °F 39% 30.19 in 10.0 mi SSW 12.7 mph - N/A   Scattered Clouds
9:55 PM 44.6 °F 40.2 °F 21.2 °F 39% 30.19 in 10.0 mi SSW 8.1 mph - N/A   Mostly Cloudy
10:15 PM 44.6 °F 37.2 °F 19.4 °F 37% 30.19 in 10.0 mi South 17.3 mph 23.0 mph N/A   Mostly Cloudy
10:35 PM 44.6 °F 38.8 °F 19.4 °F 37% 30.18 in 10.0 mi South 11.5 mph 21.9 mph N/A   Mostly Cloudy
10:55 PM 44.6 °F 38.1 °F 19.4 °F 37% 30.18 in 10.0 mi South 13.8 mph 19.6 mph N/A   Overcast
11:15 PM 44.6 °F 40.2 °F 19.4 °F 37% 30.17 in 10.0 mi South 8.1 mph 27.6 mph N/A   Overcast
11:35 PM 44.6 °F 37.8 °F 19.4 °F 37% 30.17 in 10.0 mi South 15.0 mph - N/A   Mostly Cloudy
11:55 PM 44.6 °F 38.8 °F 21.2 °F 39% 30.17 in 10.0 mi South 11.5 mph 19.6 mph N/A   Overcast
12:15 AM 44.6 °F 38.4 °F 21.2 °F 39% 30.16 in 10.0 mi South 12.7 mph - N/A   Mostly Cloudy
12:35 AM 44.6 °F 38.4 °F 23.0 °F 43% 30.16 in 10.0 mi South 12.7 mph 18.4 mph N/A   Mostly Cloudy
12:55 AM 44.6 °F 37.2 °F 23.0 °F 43% 30.14 in 10.0 mi South 17.3 mph 26.5 mph N/A   Mostly Cloudy